Location: B?dargowo
(53.3916°N, 14.4413°E)
Time: 10:09:13
(UTC+00:00)

USA 215 - Pass Details

Date: 05 February 2023
Orbit: 1100 x 1107 km, 123.0° (Epoch: 18 March)

Event Time Altitude Azimuth Distance (km) Brightness Sun altitude
Rises 16:48:12 0° 134° (SE) 3,913 5.8 -8.6°
Reaches altitude 10° 16:50:45 10° 139° (SE) 2,957 5.3 -9.0°
Maximum altitude 16:57:09 56° 217° (SW) 1,295 4.0 -9.9°
Drops below altitude 10° 17:03:34 10° 295° (WNW) 2,964 6.4 -10.8°
Sets 17:06:07 0° 300° (WNW) 3,924 7.0 -11.2°
